Location: Ferchesar
(52.6477°N, 12.4298°E)
Time: 04:34:23
(UTC+01:00)

Vanguard 1 Rocket - Pass Details

Date: 16 December 2021
Orbit: 651 x 4224 km, 34.3° (Epoch: 15 January)

Event Time Altitude Azimuth Distance (km) Brightness Sun altitude
Exits shadow 05:07:27 17° 224° (SW) 4,139 10.4 -27.1°
Maximum altitude 05:11:54 21° 200° (SSW) 4,416 10.7 -26.4°
Drops below altitude 10° 05:23:37 10° 162° (SSE) 6,389 12.0 -24.6°
Sets 05:31:37 0° 150° (SSE) 7,969 12.7 -23.4°
